Cairns, Australia

1:32 PM AEST on July 25, 2017 (GMT +1000)
Cairns International

Weather History for YBCS - July, 2014

Change the Weather History Date:

Saturday, July 26, 2014

  Actual Average Record
Temperature  
Mean Temperature 74 °F -  
Max Temperature 81 °F 80 °F 82 °F (1998)
Min Temperature 66 °F 64 °F 50 °F (2002)
Cooling Degree Days 8    
Growing Degree Days 24 (Base 50)    
Moisture  
Dew Point 64 °F    
Average Humidity 74    
Maximum Humidity 94    
Minimum Humidity 42    
Precipitation  
Precipitation 0.01 in 0.03 in - ()
Sea Level Pressure  
Sea Level Pressure 30.14 in    
Wind  
Wind Speed 13 mph ()    
Max Wind Speed 21 mph    
Max Gust Speed -    
Visibility 6.6 miles    
Events Rain    
Averages and records for this station are not official NWS values.
T = Trace of Precipitation, MM = Missing Value Source: Averaged Metar Reports

Daily Weather History Graph

Daily Weather History Graph

Search for Another Location

Airport or City:

Trip Planner

Search our weather history database for the weather conditions in past years. The results will help you decide how hot, cold, wet, or windy it might be!

Date:

Astronomy

Jul. 26, 2014 Rise Set
Actual Time 6:44 AM AEST 6:02 PM AEST
Civil Twilight 6:21 AM AEST 6:25 PM AEST
Nautical Twilight 5:55 AM AEST 6:51 PM AEST
Astronomical Twilight 5:29 AM AEST 7:18 PM AEST
Moon 5:50 AM AEST (7/26) 5:30 PM AEST (7/26)
Length of Visible Light 12h 03m
Length of Day
11h 18m
Waning Crescent, 1% of the Moon is Illuminated
Jul 26
Waning Crescent
Jul 27
New
Aug 4
First Quarter
Aug 11
Full
Aug 17
Last Quarter

Hourly Weather History & Observations

Time (AEST) Temp. Heat Index Dew Point Humidity Pressure Visibility Wind Dir Wind Speed Gust Speed Precip Events Conditions
12:00 AM 70 °F - 65 °F 80% 30.17 in - South 10.4 mph - -   Overcast
12:00 AM 69.8 °F - 64.4 °F 83% 30.15 in 6.2 mi South 10.4 mph - N/A   Mostly Cloudy
12:30 AM 69.8 °F - 64.4 °F 83% 30.15 in 6.2 mi SSE 12.7 mph - N/A   Overcast
1:00 AM 69 °F - 64 °F 81% 30.17 in - South 12.7 mph - -  
1:00 AM 68.0 °F - 64.4 °F 88% 30.15 in 6.2 mi South 12.7 mph - N/A   Overcast
1:30 AM 69.8 °F - 64.4 °F 83% 30.12 in 6.2 mi South 16.1 mph - N/A   Overcast
2:00 AM 68.0 °F - 64.4 °F 88% 30.12 in 6.2 mi South 13.8 mph - N/A Rain Light Rain Showers
2:23 AM 68.0 °F - 66.2 °F 94% 30.15 in 3.7 mi SSE 13.8 mph - N/A Rain Light Rain Showers
2:30 AM 68.0 °F - 66.2 °F 94% 30.12 in 3.1 mi SSE 15.0 mph - N/A Rain Light Rain Showers
2:42 AM 68.0 °F - 64.4 °F 88% 30.12 in 6.2 mi South 11.5 mph - N/A   Overcast
3:00 AM 67 °F - 65 °F 90% 30.14 in - South 15.0 mph - -  
3:00 AM 68.0 °F - 64.4 °F 88% 30.12 in 6.2 mi South 15.0 mph - N/A   Overcast
3:30 AM 66.2 °F - 64.4 °F 94% 30.12 in 6.2 mi South 15.0 mph - N/A   Overcast
4:00 AM 67 °F - 64 °F 86% 30.14 in - South 9.2 mph - -  
4:00 AM 68.0 °F - 64.4 °F 88% 30.12 in 6.2 mi South 9.2 mph - N/A Rain Light Rain Showers
4:30 AM 68.0 °F - 62.6 °F 83% 30.12 in 6.2 mi South 10.4 mph - N/A   Overcast
5:00 AM 68.0 °F - 62.6 °F 83% 30.12 in 6.2 mi South 10.4 mph - N/A   Overcast
5:30 AM 68.0 °F - 64.4 °F 88% 30.12 in 6.2 mi SSE 10.4 mph - N/A   Mostly Cloudy
6:00 AM 67 °F - 64 °F 88% 30.15 in - SSE 11.5 mph - -   Overcast
6:00 AM 68.0 °F - 64.4 °F 88% 30.15 in 6.2 mi SSE 11.5 mph - N/A   Mostly Cloudy
6:30 AM 68.0 °F - 62.6 °F 83% 30.15 in 6.2 mi South 13.8 mph - N/A   Mostly Cloudy
7:00 AM 69 °F - 63 °F 76% 30.17 in - South 11.5 mph - -  
7:00 AM 68.0 °F - 62.6 °F 83% 30.15 in 6.2 mi South 11.5 mph - N/A   Mostly Cloudy
7:30 AM 68.0 °F - 64.4 °F 88% 30.15 in 6.2 mi South 11.5 mph - N/A Rain Light Rain Showers
7:50 AM 69.8 °F - 64.4 °F 83% 30.15 in 6.2 mi South 13.8 mph - N/A   Mostly Cloudy
8:00 AM 69.8 °F - 64.4 °F 83% 30.15 in 6.2 mi South 13.8 mph - N/A   Mostly Cloudy
8:30 AM 69.8 °F - 64.4 °F 83% 30.18 in 6.2 mi SSE 12.7 mph - N/A   Mostly Cloudy
9:00 AM 73 °F - 64 °F 67% 30.18 in 19 mi SSE 13.8 mph - -   Partly Cloudy
9:00 AM 73.4 °F - 64.4 °F 73% 30.18 in 6.2 mi SSE 13.8 mph - N/A   Scattered Clouds
9:30 AM 73.4 °F - 64.4 °F 73% 30.18 in 6.2 mi South 15.0 mph - N/A   Partly Cloudy
10:00 AM 76 °F - 65 °F 62% 30.19 in - SSE 13.8 mph - -  
10:00 AM 75.2 °F - 66.2 °F 73% 30.18 in 6.2 mi SSE 13.8 mph - N/A   Partly Cloudy
10:30 AM 75.2 °F - 64.4 °F 69% 30.18 in 6.2 mi SSE 17.3 mph - N/A   Scattered Clouds
11:00 AM 77.0 °F - 64.4 °F 65% 30.15 in 6.2 mi SSE 16.1 mph - N/A   Scattered Clouds
11:30 AM 80.6 °F 82.3 °F 64.4 °F 58% 30.15 in 6.2 mi SSE 17.3 mph - N/A   Scattered Clouds
12:00 PM 79 °F - 62 °F 47% 30.15 in - SE 19.6 mph - -  
12:00 PM 78.8 °F - 62.6 °F 57% 30.15 in 6.2 mi SE 19.6 mph - N/A   Partly Cloudy
12:30 PM 80.6 °F 81.5 °F 60.8 °F 51% 30.12 in 6.2 mi SE 19.6 mph - N/A   Partly Cloudy
1:00 PM 81 °F - 62 °F 42% 30.13 in - ESE 20.7 mph - -  
1:00 PM 80.6 °F 81.8 °F 62.6 °F 54% 30.12 in 6.2 mi ESE 20.7 mph - N/A   Partly Cloudy
1:30 PM 80.6 °F 81.8 °F 62.6 °F 54% 30.12 in 6.2 mi ESE 18.4 mph - N/A   Partly Cloudy
2:00 PM 78.8 °F - 62.6 °F 57% 30.09 in 6.2 mi ESE 19.6 mph - N/A   Scattered Clouds
2:30 PM 78.8 °F - 62.6 °F 57% 30.09 in 6.2 mi ESE 18.4 mph - N/A   Partly Cloudy
3:00 PM 78 °F - 63 °F 50% 30.10 in 19 mi SE 19.6 mph - -   Partly Cloudy
3:00 PM 78.8 °F - 62.6 °F 57% 30.09 in 6.2 mi SE 19.6 mph - N/A   Partly Cloudy
3:30 PM 78.8 °F - 62.6 °F 57% 30.09 in 6.2 mi SE 18.4 mph - N/A   Partly Cloudy
4:00 PM 78 °F - 63 °F 51% 30.12 in - SE 18.4 mph - -  
4:00 PM 77.0 °F - 62.6 °F 61% 30.09 in 6.2 mi SE 18.4 mph - N/A   Partly Cloudy
4:30 PM 77.0 °F - 62.6 °F 61% 30.09 in 6.2 mi SE 19.6 mph - N/A   Partly Cloudy
5:00 PM 75.2 °F - 62.6 °F 65% 30.09 in 6.2 mi SE 18.4 mph - N/A   Partly Cloudy
5:30 PM 75.2 °F - 62.6 °F 65% 30.09 in 6.2 mi SE 17.3 mph - N/A   Partly Cloudy
6:00 PM 73 °F - 64 °F 65% 30.13 in - SE 17.3 mph - -  
6:00 PM 73.4 °F - 64.4 °F 73% 30.12 in 6.2 mi SE 17.3 mph - N/A   Partly Cloudy
6:30 PM 71.6 °F - 62.6 °F 73% 30.12 in 6.2 mi SE 16.1 mph - N/A   Partly Cloudy
7:00 PM 72 °F - 63 °F 66% 30.14 in - SE 15.0 mph - -  
7:00 PM 71.6 °F - 62.6 °F 73% 30.12 in 6.2 mi SE 15.0 mph - N/A   Partly Cloudy
7:30 PM 71.6 °F - 62.6 °F 73% 30.15 in 6.2 mi South 6.9 mph - N/A   Partly Cloudy
8:00 PM 69.8 °F - 64.4 °F 83% 30.15 in 6.2 mi South 8.1 mph - N/A   Scattered Clouds
8:30 PM 69.8 °F - 64.4 °F 83% 30.15 in 6.2 mi South 9.2 mph - N/A   Scattered Clouds
9:00 PM 70 °F - 65 °F 78% 30.17 in - South 9.2 mph - -  
9:00 PM 69.8 °F - 64.4 °F 83% 30.15 in 6.2 mi South 9.2 mph - N/A   Mostly Cloudy
9:30 PM 69.8 °F - 64.4 °F 83% 30.15 in 6.2 mi South 10.4 mph - N/A   Scattered Clouds
10:00 PM 70 °F - 65 °F 79% 30.18 in - South 10.4 mph - -  
10:00 PM 69.8 °F - 64.4 °F 83% 30.15 in 6.2 mi South 10.4 mph - N/A Rain Light Rain Showers
10:30 PM 69.8 °F - 64.4 °F 83% 30.15 in 6.2 mi South 10.4 mph - N/A   Scattered Clouds
11:00 PM 69.8 °F - 64.4 °F 83% 30.15 in 6.2 mi South 11.5 mph - N/A   Scattered Clouds
11:30 PM 69.8 °F - 64.4 °F 83% 30.15 in 6.2 mi South 10.4 mph - N/A   Scattered Clouds